Find Yaogan Weixing 25 fu xing yi

NORAD ID: 40339 Int'l Des: 2014-080 Owner: ZZB Country: CN Constellation: yaogan operational
LEO

リアルタイム位置

3D地球を読み込み中...

Yaogan Weixing 25 fu xing yiについて

説明を読み込み中...

次回通過

Passes for default location (London). Set your location on the main map for personalized predictions.

高度履歴

Loading altitude history...

軌道要素

1 40339U 14080B 26119.95778277 -.00000003 00000-0 99210-4 0 9992
2 40339 63.3878 75.1676 0362753 8.7138 351.9961 13.45430807559144
Epoch: Apr 29, 2026 • Age: 8 hours

現在のステータス

高度 1302.9 km
速度 7.11 km/s
衛星直下点 -43.70°S, 44.63°W
打ち上げ日 Dec 10, 2014
運用期間 11.3 years
タイプ military

技術仕様

分類 Payload
質量 500.00 kg
乾燥質量 500.00 kg
総質量 500.00 kg
長さ 0.50 m
直径 0.50 m
スパン 1.00 m
形状 Box + 2 Pan
製造者 CAST
フェーズステータス In Orbit
所有者/国 ZZB/CN

Most Searched